Tracking 35275 objects as of 9-Sep-2026
HD Live streaming from Space Station
objects crossing your sky now

NADEZHDA 6

Track NADEZHDA 6 now!
10-day predictions
NADEZHDA 6 is classified as:


NORAD ID: 26384
Int'l Code: 2000-033A
Launch date: June 28, 2000
Source: Commonwealth of Independent States (former USSR) (CIS)
Launch site: PLESETSK MISSILE AND SPACE COMPLEX (PKMTR)

Search and rescue; part of COSPAS/SARSAT fleet.
Your satellite tracking list
Your tracking list is empty




NASA's NSSDC Master Catalog

Two Line Element Set (TLE):
1 26384U 00033A   26251.86964119  .00000534  00000-0  93683-4 0  9994
2 26384  97.8520 224.1121 0014536  85.0990 275.1876 14.71455773400496
Source of the keplerian elements: AFSPC